Change the Weather History Date:

Wednesday, December 24, 2014

  Actual Average Record
Temperature  
Mean Temperature 46 °F 53 °F  
Max Temperature 53 °F 63 °F 81 °F (1955)
Min Temperature 39 °F 43 °F 11 °F (1989)
Degree Days  
Heating Degree Days 19 13  
Month to date heating degree days 182 264  
Since 1 July heating degree days 483 463  
Moisture  
Dew Point 38 °F    
Average Humidity 70    
Maximum Humidity 89    
Minimum Humidity 50    
Precipitation  
Precipitation 0.00 in 0.19 in 1.89 in (1905)
Month to date precipitation 3.05 4.25  
Year to date precipitation 59.55 59.17  
Snow  
Snow 0.00 in 0.00 in 0.00 in ()
Month to date snowfall 0.0 0.0  
Since 1 July snowfall 0.0 0.0  
Snow Depth 0.00 in    
Sea Level Pressure  
Sea Level Pressure 29.96 in    
Wind  
Wind Speed 10 mph (WNW)    
Max Wind Speed 21 mph    
Max Gust Speed 26 mph    
Visibility 10 miles    
Events      
T = Trace of Precipitation, MM = Missing Value Source: NWS Daily Summary

Daily Weather History Graph

Daily Weather History Graph

Search for Another Location

Airport or City:

Trip Planner

Search our weather history database for the weather conditions in past years. The results will help you decide how hot, cold, wet, or windy it might be!

Date:

Astronomy

Dec. 24, 2014 Rise Set
Actual Time 7:01 AM CST 5:13 PM CST
Civil Twilight 6:35 AM CST 5:40 PM CST
Nautical Twilight 6:05 AM CST 6:10 PM CST
Astronomical Twilight 5:35 AM CST 6:39 PM CST
Moon 9:03 AM CST (12/24) 8:25 PM CST (12/24)
Length of Visible Light 11h 05m
Length of Day
10h 12m
Waxing Crescent, 10% of the Moon is Illuminated
Dec 24
Waxing Crescent
Dec 28
First Quarter
Jan 4
Full
Jan 13
Last Quarter
Jan 20
New

Hourly Weather History & Observations

Time (CST) Temp. Windchill Dew Point Humidity Pressure Visibility Wind Dir Wind Speed Gust Speed Precip Events Conditions
12:53 AM 48.9 °F - 44.1 °F 83% 29.76 in 10.0 mi NNW 15.0 mph 21.9 mph N/A   Overcast
1:19 AM 48.0 °F - 43.0 °F 83% 29.78 in 10.0 mi NW 13.8 mph - N/A   Mostly Cloudy
1:31 AM 46.9 °F - 43.0 °F 86% 29.76 in 10.0 mi NNW 13.8 mph - N/A   Scattered Clouds
1:53 AM 46.9 °F - 43.0 °F 86% 29.79 in 10.0 mi NW 11.5 mph - N/A   Clear
2:53 AM 46.9 °F - 42.1 °F 83% 29.82 in 10.0 mi NW 11.5 mph - N/A   Clear
3:53 AM 46.9 °F - 42.1 °F 83% 29.84 in 10.0 mi WNW 11.5 mph - N/A   Clear
4:53 AM 46.0 °F 41.4 °F 42.1 °F 86% 29.85 in 10.0 mi WNW 9.2 mph - N/A   Clear
5:53 AM 45.0 °F 40.6 °F 41.0 °F 86% 29.87 in 10.0 mi WNW 8.1 mph - N/A   Clear
6:53 AM 45.0 °F 40.6 °F 39.9 °F 82% 29.91 in 10.0 mi WNW 8.1 mph - N/A   Clear
7:53 AM 45.0 °F 39.3 °F 39.9 °F 82% 29.94 in 10.0 mi NW 11.5 mph - N/A   Clear
8:53 AM 46.9 °F - 37.9 °F 71% 29.96 in 10.0 mi NW 13.8 mph - N/A   Clear
9:53 AM 48.0 °F - 36.0 °F 63% 30.01 in 10.0 mi NW 18.4 mph 24.2 mph N/A   Clear
10:53 AM 50.0 °F - 34.0 °F 54% 30.01 in 10.0 mi NW 15.0 mph 21.9 mph N/A   Partly Cloudy
11:53 AM 51.1 °F - 34.0 °F 52% 29.99 in 10.0 mi WNW 17.3 mph 23.0 mph N/A   Scattered Clouds
12:53 PM 50.0 °F - 33.1 °F 52% 29.97 in 10.0 mi NW 13.8 mph 21.9 mph N/A   Overcast
1:53 PM 51.1 °F - 33.1 °F 50% 29.97 in 10.0 mi WNW 13.8 mph 23.0 mph N/A   Overcast
2:53 PM 50.0 °F - 34.0 °F 54% 29.99 in 10.0 mi WNW 11.5 mph 18.4 mph N/A   Overcast
3:53 PM 50.0 °F - 35.1 °F 57% 30.01 in 10.0 mi WNW 9.2 mph - N/A   Overcast
4:53 PM 48.9 °F - 33.1 °F 54% 30.04 in 10.0 mi NW 10.4 mph - N/A   Overcast
5:53 PM 48.0 °F - 35.1 °F 61% 30.05 in 10.0 mi WNW 6.9 mph - N/A   Mostly Cloudy
6:53 PM 46.9 °F - 36.0 °F 66% 30.08 in 10.0 mi West 8.1 mph - N/A   Overcast
7:53 PM 45.0 °F 41.2 °F 36.0 °F 71% 30.10 in 10.0 mi WNW 6.9 mph - N/A   Clear
8:53 PM 43.0 °F 39.5 °F 36.0 °F 76% 30.13 in 10.0 mi West 5.8 mph - N/A   Clear
9:53 PM 42.1 °F 39.2 °F 36.0 °F 79% 30.15 in 10.0 mi West 4.6 mph - N/A   Clear
10:53 PM 39.0 °F - 35.1 °F 86% 30.15 in 10.0 mi Calm Calm - N/A   Clear
11:53 PM 39.0 °F - 36.0 °F 89% 30.15 in 10.0 mi Calm Calm - N/A   Clear